Regional Weather Roundup
Issued by NWS Bismarck, ND

Home | Current Version | Previous Version | Text Only | Print | Product List | Glossary On
Versions: 1 2 3 4 5 6 7 8 9 10 11 12 13 14 15 16 17 18 19 20 21 22 23 24 25 26 27 28 29 30 31 32 33 34 35 36 37 38 39 40 41 42 43 44 45 46 47 48 49 50
000
ASUS43 KBIS 242120
RWRBIS

NWR BROADCAST TEXT
NATIONAL WEATHER SERVICE BISMARCK ND
400 PM CDT SUN MAY 24 2015

NOTE: "FAIR" INDICATES FEW OR NO CLOUDS BELOW 12,000 FEET WITH NO
SIGNIFICANT WEATHER AND/OR OBSTRUCTIONS TO VISIBILITY.


CITY           SKY/WX    TMP DP  RH WIND       PRES   REMARKS
WILLISTON      MOSUNNY   76  39  26 E14G25    29.95F
MINOT          PTSUNNY   74  42  31 E15G23    29.95F
MINOT AFB      PTSUNNY   76  41  28 E9G21     29.94F
BISMARCK       CLOUDY    68  50  52 E10       29.95F
DICKINSON      CLOUDY    67  50  54 E12       29.95F
GARRISON         N/A     70  48  45 SE13      29.96F
HETTINGER ARPT CLOUDY    62  49  62 E17G24    29.96F
JAMESTOWN      CLOUDY    68  50  52 E15       29.93F
BEACH          CLOUDY    64  50  59 E7        29.98F
CARRINGTON     MOCLDY    70  50  49 SE14G21   29.96F
CROSBY         FAIR      77  34  20 E13       29.96F
HARVEY         FAIR      72  46  40 SE9       29.96F
HAZEN          CLOUDY    66  48  52 E8        29.97F
LINTON         MOCLDY    66  52  59 E16       29.93S
MANDAN         CLOUDY    66  48  52 E10       29.96F
OAKES            N/A     63  55  77 E13       29.93S
STANLEY        FAIR      73  43  33 E13G20    29.97F
TIOGA          FAIR      73  36  25 E15G23    29.99F
WATFORD CITY   FAIR      70  46  43 SE12      29.94F
$$

CITY           SKY/WX    TMP DP  RH WIND       PRES   REMARKS
GRAND FORKS    CLOUDY    75  47  36 SE7       29.95F
GRAND FORKS AF CLOUDY    75  48  38 VRB5      29.95F
DEVILS LAKE    CLOUDY    72  48  43 SE13      29.96F
FARGO          CLOUDY    71  51  49 E8        29.93F
CANDO          FAIR      73  41  31 SE14      29.97F
CAVALIER       FAIR      77  41  27 SE6G16    29.96S
GRAFTON        FAIR      75  48  38 MISG      29.95F
LANGDON        FAIR      75  41  29 SE15      29.98F
ROLLA            N/A     75  36  23 SE16G22   29.98F
WALHALLA         N/A     77  43  29 SE7       29.96F
$$

CITY           SKY/WX    TMP DP  RH WIND       PRES   REMARKS
ABERDEEN       CLOUDY    66  54  65 E14       29.89F
MOBRIDGE       CLOUDY    70  50  49 E15       29.88F
BUFFALO          N/A     55  53  93 NE13      29.89F
RAPID CITY     LGT RAIN  54  53  97 E14       29.88F
GLASGOW        PTSUNNY   76  35  22 SE20      29.95F
SIDNEY         PTSUNNY   72  46  40 SE5       29.96F
WOLF POINT     MOSUNNY   76  40  27 E12       29.94F
GLENDIVE       CLOUDY    63  52  67 NE8       29.98S
MILES CITY     PTSUNNY   66  48  52 E5        29.95F
BAKER          LGT RAIN  57  52  83 E13       29.99F
$$

CITY           SKY/WX    TMP DP  RH WIND       PRES   REMARKS
BILLINGS       CLOUDY    60  48  64 E12G21    30.00F
GREAT FALLS    MOSUNNY   63  42  46 E6        30.03F
REGINA         PTSUNNY   79  32  18 N10       29.96F
ESTEVAN        PTSUNNY   79  37  22 SE13G20   29.96F
$$



USA.gov is the U.S. government's official web portal to all federal, state and local government web resources and services.